Weather in Rogachev

Belarus     53°04′55″N   30°03′11″E
temp.,
°C
wind,
m/s
gust,
m/s
humid.,
%
clouds,
%
prec.,
mm/h
press.,
hPa
HPBL,
m
15 april, thu
thu1500:00+10ne2275100 0.0 101518
03:00+9nnw2387100 0.2 101569
06:00+9nne369299 0.4 1014180
09:00+9nne3694100 1.4 1013303
12:00+9n348990 0.1 1013287
15:00+14n347171 0.8 1011915
18:00+13ene3680100 1.9 1010601
21:00+9e35955 8.6 1011143
16 april, fri
fri1600:00+7ese23944 0.0 101149
03:00+7e34955 0.0 101166
06:00+6e339599 0.1 101156
09:00+8ne239535 1.8 101192
12:00+10ese7107986 0.8 10121074
15:00+13e7106381 1.2 10131488
18:00+11ese697478 0.7 1013848
21:00+8ese5984100 0.9 1015400
17 april, sat
sat1700:00+8e369277 0.0 1015334
03:00+8e489295 0.1 1017300
06:00+7e3791100 0.1 1018286
09:00+8ese358994 0.1 1019320
12:00+12ese4663100 0.3 10201352
15:00+12e4458100 0.4 10201397
18:00+10s1176100 0.1 1019131
21:00+8nw1293100 2.9 102076
18 april, sun
sun1800:00+8wsw2293100 0.0 1020119
03:00+8wsw1193100 0.1 102044
06:00+8nw0094100 0.0 102012
09:00+9ne2392100 0.0 1020287
12:00+10ene3486100 0.1 1021524
15:00+12ene3474100 0.1 1021834
18:00+11e4877100 0.2 1021431
21:00+9e497855 0.2 1023430
19 april, mon
mon1900:00+9ene3778100 0.0 1023168
03:00+8ene3785100 0.1 1023218
06:00+7ene3784100 0.0 1023196
09:00+9e687577 0.0 1024551
12:00+12e7105538 0.0 10231688
15:00+14e684768 0.0 10222094
18:00+12ese796065 0.0 10221260
21:00+8e5117291 0.0 1022391